Location: Chenereilles
(45.4866°N, 4.0790°E)
Time: 05:24:08
(UTC+00:00)

Cosmos 1939 Rocket - Pass Details

Date: 12 November 2019
Orbit: 532 x 585 km, 97.4° (Epoch: 09 December)

Event Time Altitude Azimuth Distance (km) Brightness Sun altitude
Exits shadow 18:55:09 37° 319° (NW) 917 4.2 -27.8°
Drops below altitude 10° 18:57:53 10° 340° (NNW) 1,917 5.8 -28.2°
Sets 19:00:05 0° 344° (NNW) 2,819 6.7 -28.6°
